NJE361 EGJJ-EIKY

Flight info

Callsign NJE361
Flight time 0h 57m
Altitude 38000
Route SKERY N864 BHD DCT BANBA DCT WTD DCT TISMO
Aircraft C750/M-SBDE3FGHRWXY/S

Departure

Time 2026-04-25 19:20
Airport Jersey Airport (EGJJ)

Arrival

Time 2026-04-25 20:17
Airport Kerry Airport (EIKY)
Time Latitude Longitude Altitude Speed Heading
2026-04-25 18:56 49.20440 -2.19101 280 ft 0 kts 165°
2026-04-25 19:14 49.20434 -2.19104 280 ft 2 kts 202°
2026-04-25 19:14 49.20424 -2.19142 280 ft 6 kts 257°
2026-04-25 19:15 49.20415 -2.19212 280 ft 7 kts 260°
2026-04-25 19:15 49.20406 -2.19302 280 ft 10 kts 261°
2026-04-25 19:15 49.20401 -2.19422 280 ft 12 kts 283°
2026-04-25 19:15 49.20423 -2.19553 280 ft 12 kts 285°
2026-04-25 19:16 49.20443 -2.19677 280 ft 12 kts 276°
2026-04-25 19:16 49.20437 -2.19795 280 ft 11 kts 263°
2026-04-25 19:16 49.20437 -2.19903 280 ft 10 kts 300°
2026-04-25 19:16 49.20493 -2.19928 280 ft 8 kts 340°
2026-04-25 19:17 49.20519 -2.19992 280 ft 7 kts 285°
2026-04-25 19:17 49.20532 -2.20059 280 ft 6 kts 287°
2026-04-25 19:17 49.20545 -2.20119 280 ft 6 kts 288°
2026-04-25 19:17 49.20556 -2.20177 280 ft 7 kts 286°
2026-04-25 19:18 49.20571 -2.20260 280 ft 9 kts 287°
2026-04-25 19:18 49.20589 -2.20348 280 ft 8 kts 287°
2026-04-25 19:18 49.20605 -2.20430 280 ft 8 kts 286°
2026-04-25 19:18 49.20618 -2.20506 280 ft 7 kts 283°
2026-04-25 19:19 49.20626 -2.20574 281 ft 6 kts 274°
2026-04-25 19:19 49.20628 -2.20635 281 ft 5 kts 271°
2026-04-25 19:19 49.20646 -2.20695 281 ft 7 kts 321°
2026-04-25 19:19 49.20680 -2.20701 280 ft 9 kts 14°
2026-04-25 19:20 49.20708 -2.20629 280 ft 8 kts 81°
2026-04-25 19:20 49.20757 -2.20036 280 ft 109 kts 83°
2026-04-25 19:20 49.20876 -2.18604 545 ft 143 kts 83°
2026-04-25 19:20 49.20991 -2.17150 1366 ft 136 kts 81°
2026-04-25 19:21 49.21145 -2.15603 1821 ft 161 kts 80°
2026-04-25 19:21 49.21465 -2.12060 3263 ft 173 kts 80°
2026-04-25 19:21 49.21877 -2.10331 3905 ft 177 kts 54°
2026-04-25 19:22 49.22838 -2.09059 4510 ft 192 kts 25°
2026-04-25 19:22 49.24177 -2.08656 5242 ft 206 kts 355°
2026-04-25 19:22 49.26689 -2.11071 6802 ft 229 kts 315°
2026-04-25 19:23 49.27878 -2.12786 7600 ft 241 kts 316°
2026-04-25 19:23 49.30369 -2.16698 9200 ft 272 kts 311°
2026-04-25 19:23 49.31624 -2.18947 10001 ft 283 kts 310°
2026-04-25 19:24 49.32931 -2.21311 10580 ft 300 kts 310°
2026-04-25 19:24 49.34335 -2.23854 10806 ft 327 kts 310°
2026-04-25 19:24 49.37447 -2.29456 11858 ft 349 kts 310°
2026-04-25 19:25 49.40628 -2.35165 13395 ft 356 kts 310°
2026-04-25 19:25 49.42249 -2.38072 14133 ft 360 kts 310°
2026-04-25 19:25 49.43884 -2.41005 14794 ft 363 kts 310°
2026-04-25 19:26 49.45747 -2.43644 15371 ft 367 kts 324°
2026-04-25 19:26 49.47940 -2.45665 16078 ft 369 kts 330°
2026-04-25 19:26 49.50194 -2.47591 16766 ft 372 kts 329°
2026-04-25 19:26 49.52361 -2.49800 17436 ft 375 kts 322°
2026-04-25 19:27 49.54419 -2.52299 18170 ft 378 kts 320°
2026-04-25 19:27 49.55086 -2.53115 18405 ft 379 kts 320°
2026-04-25 19:27 49.58714 -2.57120 19474 ft 386 kts 324°
2026-04-25 19:27 49.60931 -2.59502 20116 ft 390 kts 323°
2026-04-25 19:28 49.63128 -2.61995 20779 ft 394 kts 322°
2026-04-25 19:28 49.65318 -2.64491 21423 ft 399 kts 323°
2026-04-25 19:28 49.67583 -2.67005 22073 ft 403 kts 323°
2026-04-25 19:28 49.69877 -2.69541 22709 ft 408 kts 323°
2026-04-25 19:29 49.72185 -2.72134 23312 ft 413 kts 322°
2026-04-25 19:29 49.74516 -2.74768 23918 ft 417 kts 322°
2026-04-25 19:29 49.76871 -2.77408 24500 ft 419 kts 322°
2026-04-25 19:29 49.79238 -2.80057 25093 ft 421 kts 322°
2026-04-25 19:30 49.81610 -2.82729 25664 ft 423 kts 322°
2026-04-25 19:30 49.83992 -2.85420 26245 ft 425 kts 322°
2026-04-25 19:30 49.86386 -2.88122 26824 ft 427 kts 322°
2026-04-25 19:30 49.88788 -2.90832 27393 ft 429 kts 322°
2026-04-25 19:31 49.91205 -2.93568 27959 ft 431 kts 322°
2026-04-25 19:31 49.93642 -2.96326 28542 ft 434 kts 322°
2026-04-25 19:31 49.96358 -2.98436 28916 ft 444 kts 341°
2026-04-25 19:31 49.99421 -2.99163 29563 ft 448 kts 353°
2026-04-25 19:32 50.02548 -2.99289 30110 ft 452 kts 357°
2026-04-25 19:32 50.05695 -2.99194 30571 ft 455 kts 359°
2026-04-25 19:32 50.08877 -2.99010 30991 ft 459 kts 359°
2026-04-25 19:32 50.09918 -2.98939 31128 ft 460 kts 359°
2026-04-25 19:33 50.15258 -2.98528 32160 ft 457 kts 360°
2026-04-25 19:33 50.18436 -2.98254 32744 ft 458 kts 360°
2026-04-25 19:33 50.21615 -2.97959 33368 ft 456 kts 360°
2026-04-25 19:33 50.24779 -2.97646 34034 ft 455 kts 360°
2026-04-25 19:34 50.26869 -2.97429 34437 ft 454 kts 360°
2026-04-25 19:34 50.30011 -2.97093 34984 ft 453 kts
2026-04-25 19:34 50.33150 -2.96825 35491 ft 450 kts 357°
2026-04-25 19:34 50.37240 -2.97528 36177 ft 443 kts 344°
2026-04-25 19:35 50.39232 -2.98436 36546 ft 440 kts 338°
2026-04-25 19:35 50.42009 -3.00427 37043 ft 437 kts 328°
2026-04-25 19:35 50.44498 -3.03126 37552 ft 434 kts 318°
2026-04-25 19:35 50.46629 -3.06444 38049 ft 432 kts 309°
2026-04-25 19:36 50.48360 -3.10252 38205 ft 438 kts 300°
2026-04-25 19:36 50.49826 -3.14507 38235 ft 448 kts 296°
2026-04-25 19:36 50.52823 -3.23409 38229 ft 468 kts 299°
2026-04-25 19:37 50.56740 -3.31683 38234 ft 482 kts 309°
2026-04-25 19:37 50.61161 -3.39737 38227 ft 489 kts 307°
2026-04-25 19:38 50.65216 -3.48364 38219 ft 489 kts 306°
2026-04-25 19:38 50.69506 -3.56706 38219 ft 490 kts 307°
2026-04-25 19:39 50.73641 -3.65240 38221 ft 489 kts 306°
2026-04-25 19:39 50.77856 -3.73691 38221 ft 490 kts 307°
2026-04-25 19:40 50.81979 -3.82121 38232 ft 487 kts 306°
2026-04-25 19:40 50.86161 -3.90644 38220 ft 490 kts 307°
2026-04-25 19:41 50.90333 -3.99185 38218 ft 490 kts 306°
2026-04-25 19:41 50.93790 -4.06295 38219 ft 490 kts 306°
2026-04-25 19:42 50.98658 -4.16315 38219 ft 490 kts 306°
2026-04-25 19:42 51.02808 -4.24903 38222 ft 490 kts 306°
2026-04-25 19:43 51.06944 -4.33480 38203 ft 488 kts 306°
2026-04-25 19:43 51.11064 -4.42060 38213 ft 488 kts 306°
2026-04-25 19:44 51.15155 -4.50602 38216 ft 488 kts 306°
2026-04-25 19:44 51.19267 -4.59219 38216 ft 488 kts 306°
2026-04-25 19:45 51.23374 -4.67852 38212 ft 488 kts 306°
2026-04-25 19:45 51.27481 -4.76519 38225 ft 490 kts 306°
2026-04-25 19:46 51.31575 -4.85180 38222 ft 487 kts 305°
2026-04-25 19:46 51.35650 -4.93837 38222 ft 487 kts 305°
2026-04-25 19:47 51.39724 -5.02515 38222 ft 488 kts 305°
2026-04-25 19:47 51.43791 -5.11211 38223 ft 488 kts 305°
2026-04-25 19:48 51.47857 -5.19934 38224 ft 491 kts 305°
2026-04-25 19:48 51.51935 -5.28709 38223 ft 490 kts 305°
2026-04-25 19:49 51.55315 -5.36008 38219 ft 490 kts 305°
2026-04-25 19:49 51.60060 -5.46287 38226 ft 490 kts 304°
2026-04-25 19:50 51.66138 -5.59516 38225 ft 490 kts 304°
2026-04-25 19:51 51.70198 -5.68393 38221 ft 494 kts 304°
2026-04-25 19:51 51.74268 -5.77314 38221 ft 493 kts 304°
2026-04-25 19:52 51.78325 -5.86246 38225 ft 492 kts 304°
2026-04-25 19:52 51.82335 -5.95099 38224 ft 491 kts 304°
2026-04-25 19:53 51.86365 -6.04032 38219 ft 492 kts 304°
2026-04-25 19:53 51.90392 -6.12989 38221 ft 495 kts 304°
2026-04-25 19:54 51.94425 -6.22019 38218 ft 493 kts 303°
2026-04-25 19:54 51.97558 -6.31859 38216 ft 491 kts 292°
2026-04-25 19:55 52.00387 -6.41942 38222 ft 489 kts 294°
2026-04-25 19:55 52.03233 -6.51951 38220 ft 488 kts 293°
2026-04-25 19:56 52.06037 -6.61998 38220 ft 489 kts 293°
2026-04-25 19:56 52.08858 -6.72040 38217 ft 488 kts 293°
2026-04-25 19:57 52.11661 -6.82138 38212 ft 490 kts 293°
2026-04-25 19:57 52.14468 -6.92243 38219 ft 490 kts 292°
2026-04-25 19:58 52.17032 -7.02459 38242 ft 477 kts 285°
2026-04-25 19:58 52.17899 -7.12877 37755 ft 453 kts 271°
2026-04-25 19:58 52.17935 -7.17903 37200 ft 434 kts 269°
2026-04-25 19:59 52.17957 -7.22734 36395 ft 422 kts 270°
2026-04-25 19:59 52.18180 -7.27511 35236 ft 423 kts 275°
2026-04-25 19:59 52.18535 -7.32259 34366 ft 421 kts 275°
2026-04-25 19:59 52.18784 -7.37000 33408 ft 421 kts 272°
2026-04-25 20:00 52.18939 -7.41797 32472 ft 428 kts 271°
2026-04-25 20:00 52.18997 -7.43432 32163 ft 430 kts 271°
2026-04-25 20:00 52.19410 -7.51643 30676 ft 442 kts 272°
2026-04-25 20:00 52.19662 -7.56642 29741 ft 441 kts 272°
2026-04-25 20:01 52.20073 -7.66507 27794 ft 430 kts 272°
2026-04-25 20:01 52.20296 -7.71318 26855 ft 423 kts 272°
2026-04-25 20:01 52.20516 -7.76065 25959 ft 416 kts 272°
2026-04-25 20:02 52.20718 -7.80742 25085 ft 411 kts 271°
2026-04-25 20:02 52.20912 -7.85367 24236 ft 407 kts 272°
2026-04-25 20:02 52.21110 -7.89943 23340 ft 403 kts 272°
2026-04-25 20:02 52.21306 -7.94474 22379 ft 399 kts 272°
2026-04-25 20:03 52.21495 -7.98963 21447 ft 395 kts 272°
2026-04-25 20:03 52.21680 -8.03411 20543 ft 391 kts 272°
2026-04-25 20:03 52.21862 -8.07819 19665 ft 388 kts 272°
2026-04-25 20:03 52.22040 -8.12134 18827 ft 385 kts 272°
2026-04-25 20:04 52.22217 -8.16473 17912 ft 382 kts 272°
2026-04-25 20:04 52.22391 -8.20764 16967 ft 377 kts 272°
2026-04-25 20:04 52.22561 -8.25003 16044 ft 371 kts 272°
2026-04-25 20:04 52.22726 -8.29171 15164 ft 366 kts 272°
2026-04-25 20:05 52.22887 -8.33283 14303 ft 361 kts 272°
2026-04-25 20:05 52.23045 -8.37350 13398 ft 357 kts 271°
2026-04-25 20:05 52.23199 -8.41333 12479 ft 346 kts 271°
2026-04-25 20:05 52.23348 -8.45186 11572 ft 335 kts 271°
2026-04-25 20:06 52.23490 -8.48935 10691 ft 327 kts 271°
2026-04-25 20:06 52.23624 -8.52483 9801 ft 310 kts 271°
2026-04-25 20:06 52.23753 -8.55985 8851 ft 308 kts 272°
2026-04-25 20:06 52.23881 -8.59430 8034 ft 302 kts 271°
2026-04-25 20:07 52.24004 -8.62768 6995 ft 271 kts 272°
2026-04-25 20:07 52.24115 -8.65737 5811 ft 257 kts 271°
2026-04-25 20:07 52.24220 -8.68770 5486 ft 271 kts 271°
2026-04-25 20:07 52.24329 -8.71836 5182 ft 270 kts 272°
2026-04-25 20:08 52.24440 -8.74881 4861 ft 268 kts 271°
2026-04-25 20:08 52.24548 -8.77910 4573 ft 265 kts 272°
2026-04-25 20:08 52.24652 -8.80879 4470 ft 261 kts 271°
2026-04-25 20:08 52.24754 -8.83803 4375 ft 263 kts 272°
2026-04-25 20:09 52.24859 -8.86831 4274 ft 264 kts 272°
2026-04-25 20:09 52.24961 -8.89793 4131 ft 266 kts 272°
2026-04-25 20:09 52.25065 -8.92835 4023 ft 257 kts 272°
2026-04-25 20:09 52.25161 -8.95610 4006 ft 235 kts 272°
2026-04-25 20:10 52.25248 -8.98187 4008 ft 229 kts 272°
2026-04-25 20:10 52.25333 -9.00777 4007 ft 225 kts 271°
2026-04-25 20:10 52.25417 -9.03274 4013 ft 218 kts 271°
2026-04-25 20:10 52.25498 -9.05747 4009 ft 219 kts 271°
2026-04-25 20:11 52.25580 -9.08241 3950 ft 223 kts 272°
2026-04-25 20:11 52.25662 -9.10780 3711 ft 221 kts 272°
2026-04-25 20:11 52.25743 -9.13268 3427 ft 217 kts 271°
2026-04-25 20:11 52.25727 -9.15644 3306 ft 199 kts 263°
2026-04-25 20:12 52.25399 -9.17703 3311 ft 180 kts 250°
2026-04-25 20:12 52.24990 -9.19619 3323 ft 177 kts 250°
2026-04-25 20:12 52.24581 -9.21552 3314 ft 182 kts 250°
2026-04-25 20:12 52.24449 -9.22188 3316 ft 182 kts 250°
2026-04-25 20:13 52.23758 -9.25476 3322 ft 185 kts 250°
2026-04-25 20:13 52.23355 -9.27388 3316 ft 170 kts 250°
2026-04-25 20:13 52.22980 -9.29180 3313 ft 166 kts 250°
2026-04-25 20:13 52.22598 -9.30997 3127 ft 170 kts 250°
2026-04-25 20:14 52.22225 -9.32758 2871 ft 168 kts 251°
2026-04-25 20:14 52.21846 -9.34573 2603 ft 169 kts 252°
2026-04-25 20:14 52.21468 -9.36368 2361 ft 158 kts 253°
2026-04-25 20:14 52.21140 -9.37907 2097 ft 134 kts 253°
2026-04-25 20:15 52.20859 -9.39266 1891 ft 122 kts 255°
2026-04-25 20:15 52.20584 -9.40560 1716 ft 118 kts 251°
2026-04-25 20:15 52.20316 -9.41831 1513 ft 119 kts 252°
2026-04-25 20:15 52.20047 -9.43102 1336 ft 118 kts 252°
2026-04-25 20:16 52.19779 -9.44373 1145 ft 119 kts 252°
2026-04-25 20:16 52.19514 -9.45642 956 ft 120 kts 252°
2026-04-25 20:16 52.19243 -9.46926 767 ft 120 kts 253°
2026-04-25 20:16 52.18971 -9.48215 581 ft 122 kts 253°
2026-04-25 20:17 52.18692 -9.49531 364 ft 123 kts 252°
2026-04-25 20:17 52.18413 -9.50838 149 ft 120 kts 252°
2026-04-25 20:17 52.18167 -9.52028 97 ft 91 kts 251°
2026-04-25 20:17 52.18025 -9.52705 99 ft 39 kts 251°
2026-04-25 20:18 52.17957 -9.53032 97 ft 29 kts 251°
2026-04-25 20:18 52.17892 -9.53338 97 ft 28 kts 251°
2026-04-25 20:18 52.17872 -9.53548 101 ft 14 kts 320°
2026-04-25 20:18 52.17957 -9.53599 97 ft 11 kts 341°
2026-04-25 20:19 52.17993 -9.53620 99 ft 4 kts 340°
2026-04-25 20:19 52.18018 -9.53641 99 ft 4 kts 332°
2026-04-25 20:19 52.18042 -9.53663 98 ft 4 kts 329°
2026-04-25 20:19 52.18067 -9.53677 98 ft 4 kts 354°
2026-04-25 20:20 52.18091 -9.53673 98 ft 3 kts 23°
2026-04-25 20:20 52.18102 -9.53649 98 ft 0 kts 72°